User: anonymous   Login
Location: Unspecified
(0.0000°N, 0.0000°E)
Time: 19:15:09
(UTC+00:00)
Language:

LEMUR 2 LANGER2SPACE - Orbit

View from above orbital plane
View from above orbital plane
View from above satellite
View from above satellite

Ground track
Ground track

The orbit is defined by the following mean orbital elements,

1 63358U          26145.48133863 +.00000000 +00000-0 +23035-3 0 00008
2 63358  97.5601 121.3417 0016157 342.5697  17.4978 15.14091664    03
Epoch (UTC): 25 May 2026 11:33:07
Eccentricity: 0.0016157
inclination: 97.5601°
perigee height: 513 km
apogee height: 535 km
right ascension of ascending node: 121.3417°
argument of perigee: 342.5697°
revolutions per day: 15.14091664
mean anomaly at epoch: 17.4978°

The dashed part of the orbit path shows where the satellite is in the earth's shadow,  

DLR